Indianapolis, IN

7:39 PM EDT on September 30, 2016 (GMT -0400)
Indianapolis International

Weather History for KIND - April, 2013

Change the Weather History Date:

Thursday, April 4, 2013

  Actual Average Record
Temperature  
Mean Temperature 46 °F 49 °F  
Max Temperature 57 °F 59 °F 80 °F (1929)
Min Temperature 34 °F 39 °F 23 °F (1975)
Degree Days  
Heating Degree Days 19 16  
Month to date heating degree days 104 66  
Since 1 July heating degree days 5021 4916  
Cooling Degree Days 0 0  
Month to date cooling degree days 0 0  
Year to date cooling degree days 0 2  
Moisture  
Dew Point 18 °F    
Average Humidity 35    
Maximum Humidity 51    
Minimum Humidity 19    
Precipitation  
Precipitation 0.00 in 0.12 in 1.48 in (1952)
Month to date precipitation 0.00 0.48  
Year to date precipitation 9.74 9.02  
Snow  
Snow 0.00 in 0.00 in 0.20 in (1891)
Month to date snowfall 0.0 0.1  
Since 1 July snowfall 34.5 25.8  
Snow Depth 0.00 in    
Sea Level Pressure  
Sea Level Pressure 30.14 in    
Wind  
Wind Speed 5 mph (East)    
Max Wind Speed 13 mph    
Max Gust Speed -    
Visibility 10 miles    
Events      
T = Trace of Precipitation, MM = Missing Value Source: NWS Daily Summary

Daily Weather History Graph

Daily Weather History Graph

Search for Another Location

Airport or City:

Trip Planner

Search our weather history database for the weather conditions in past years. The results will help you decide how hot, cold, wet, or windy it might be!

Date:

Astronomy

Apr. 04, 2013 Rise Set
Actual Time 7:24 AM EDT 8:12 PM EDT
Civil Twilight 6:56 AM EDT 8:39 PM EDT
Nautical Twilight 6:24 AM EDT 9:12 PM EDT
Astronomical Twilight 5:51 AM EDT 9:45 PM EDT
Moon 3:49 AM EDT (4/4) 2:31 PM EDT (4/4)
Length of Visible Light 13h 43m
Length of Day
12h 48m
Waning Crescent, 34% of the Moon is Illuminated
Apr 4
Waning Crescent
Apr 10
New
Apr 18
First Quarter
Apr 25
Full
May 2
Last Quarter

Hourly Weather History & Observations

Time (EDT) Temp. Windchill Dew Point Humidity Pressure Visibility Wind Dir Wind Speed Gust Speed Precip Events Conditions
12:54 AM 37.9 °F 33.5 °F 19.0 °F 47% 30.32 in 10.0 mi East 5.8 mph - N/A   Overcast
1:54 AM 39.0 °F 34.8 °F 18.0 °F 43% 30.30 in 10.0 mi East 5.8 mph - N/A   Overcast
2:54 AM 37.9 °F 33.5 °F 18.0 °F 45% 30.29 in 10.0 mi East 5.8 mph - N/A   Overcast
3:54 AM 37.0 °F 31.6 °F 18.0 °F 46% 30.27 in 10.0 mi East 6.9 mph - N/A   Overcast
4:54 AM 37.0 °F 31.0 °F 17.1 °F 44% 30.24 in 10.0 mi East 8.1 mph - N/A   Overcast
5:54 AM 36.0 °F 29.6 °F 17.1 °F 46% 30.22 in 10.0 mi East 8.1 mph - N/A   Overcast
6:54 AM 35.1 °F 28.6 °F 17.1 °F 48% 30.23 in 10.0 mi East 8.1 mph - N/A   Overcast
7:54 AM 34.0 °F 28.8 °F 18.0 °F 52% 30.23 in 10.0 mi East 5.8 mph - N/A   Mostly Cloudy
8:54 AM 36.0 °F 29.6 °F 18.0 °F 48% 30.23 in 10.0 mi ESE 8.1 mph - N/A   Mostly Cloudy
9:54 AM 39.0 °F 34.0 °F 18.0 °F 43% 30.21 in 10.0 mi SE 6.9 mph - N/A   Mostly Cloudy
10:54 AM 43.0 °F 38.2 °F 18.0 °F 37% 30.18 in 10.0 mi East 8.1 mph - N/A   Mostly Cloudy
11:54 AM 46.0 °F 41.0 °F 17.1 °F 31% 30.16 in 10.0 mi East 10.4 mph - N/A   Mostly Cloudy
12:54 PM 46.0 °F - 18.0 °F 33% 30.15 in 10.0 mi Calm Calm - N/A   Mostly Cloudy
1:54 PM 50.0 °F - 19.0 °F 29% 30.11 in 10.0 mi NE 4.6 mph - N/A   Mostly Cloudy
2:54 PM 53.1 °F - 18.0 °F 25% 30.08 in 10.0 mi SSW 4.6 mph - N/A   Mostly Cloudy
3:54 PM 55.0 °F - 19.0 °F 24% 30.05 in 10.0 mi Calm Calm - N/A   Mostly Cloudy
4:54 PM 55.9 °F - 14.0 °F 19% 30.02 in 10.0 mi Calm Calm - N/A   Mostly Cloudy
5:54 PM 57.0 °F - 19.0 °F 23% 30.02 in 10.0 mi Calm Calm - N/A   Mostly Cloudy
6:54 PM 55.9 °F - 19.0 °F 24% 30.02 in 10.0 mi NW 6.9 mph - N/A   Mostly Cloudy
7:54 PM 51.1 °F - 19.0 °F 28% 30.01 in 10.0 mi WNW 6.9 mph - N/A   Mostly Cloudy
8:54 PM 51.1 °F - 15.1 °F 24% 30.01 in 10.0 mi Calm Calm - N/A   Mostly Cloudy
9:54 PM 46.9 °F - 16.0 °F 29% 30.02 in 10.0 mi NW 3.5 mph - N/A   Mostly Cloudy
10:54 PM 45.0 °F - 17.1 °F 33% 30.01 in 10.0 mi Calm Calm - N/A   Scattered Clouds
11:54 PM 44.1 °F 42.5 °F 16.0 °F 32% 30.00 in 10.0 mi West 3.5 mph - N/A   Clear